DW0265 Weather Reports


time (UTC)temp
C
wind
direction
speed
KPH
gust
KPH
rain 1hr
cm
rain 24hr
cm
rain mn
cm
humidity
%
barometer
mb
20260901113505 20 230 8.0 16.1 0.00 0.00 0.00 59 1021.5
20260901110005 20 235 4.8 19.3 0.00 0.00 0.00 56 1021.5
20260901103005 19 241 3.2 19.3 0.00 0.13 0.00 57 1021.6
20260901100504 18 243 1.6 12.9 0.00 0.13 0.00 60 1021.9
20260901093004 17 240 4.8 16.1 0.00 0.13 0.00 61 1022.1
20260901090504 16 232 3.2 11.3 0.00 0.13 0.00 67 1022.0
20260901090004 16 236 0.0 4.8 0.00 0.13 0.00 70 1021.9
20260901083004 15 244 3.2 4.8 0.00 0.13 0.00 74 1021.8
20260901080004 15 247 0.0 3.2 0.00 0.13 0.00 78 1021.6
20260901073504 13 246 0.0 0.0 0.00 0.13 0.00 83 1021.5
20260901070504 13 246 0.0 0.0 0.00 0.13 0.00 86 1021.5
20260901063504 12 246 0.0 0.0 0.00 0.13 0.00 91 1021.4
20260901063004 12 246 0.0 1.6 0.00 0.13 0.00 91 1021.3
20260901050504 11 246 0.0 0.0 0.00 0.13 0.00 90 1020.9
20260901043004 11 246 0.0 0.0 0.00 0.13 0.00 88 1020.6
20260901040003 11 246 0.0 0.0 0.00 0.13 0.00 88 1020.4
20260901033504 12 246 0.0 0.0 0.00 0.13 0.00 86 1020.4
20260901033004 12 246 0.0 0.0 0.00 0.13 0.00 86 1020.3
20260901023004 13 246 0.0 3.2 0.00 0.13 0.00 85 1020.3
20260901020504 13 246 0.0 0.0 0.00 0.13 0.00 84 1020.3
20260901010503 13 241 0.0 0.0 0.00 0.13 0.00 80 1020.1
20260901010003 14 241 0.0 0.0 0.00 0.13 0.00 79 1020.0
20260901000503 15 241 0.0 0.0 0.00 0.36 0.00 77 1020.1
20260901000003 15 241 0.0 4.8 0.00 0.38 0.00 77 1020.0
20260831233504 15 327 0.0 3.2 0.00 0.38 0.00 77 1019.8
20260831233004 15 283 0.0 0.0 0.00 0.38 0.00 77 1019.9
20260831230504 16 283 0.0 0.0 0.00 0.38 0.00 76 1019.6
20260831230003 16 283 0.0 4.8 0.00 0.38 0.00 76 1019.6
20260831223005 16 249 0.0 4.8 0.00 0.38 0.38 74 1019.6
20260831213503 16 273 0.0 1.6 0.00 0.41 0.38 72 1019.2
20260831213003 16 250 0.0 4.8 0.00 0.41 0.38 72 1019.1
20260831210503 17 277 0.0 0.0 0.00 0.41 0.38 71 1018.9
20260831210003 17 277 0.0 9.7 0.00 0.41 0.38 71 1018.9
20260831203504 17 247 0.0 3.2 0.00 0.41 0.38 71 1018.6
20260831203003 17 253 0.0 4.8 0.00 0.41 0.38 71 1018.6
20260831200504 17 247 1.6 4.8 0.00 0.41 0.38 71 1018.2
20260831193503 18 302 0.0 0.0 0.00 0.41 0.38 70 1017.8
20260831193003 18 304 0.0 3.2 0.00 0.41 0.38 70 1017.8
20260831190504 18 246 0.0 4.8 0.00 0.41 0.38 68 1017.5
20260831183503 19 295 1.6 4.8 0.00 0.41 0.38 67 1017.2
20260831183003 19 277 1.6 24.1 0.00 0.41 0.38 67 1017.2
20260831180504 20 260 1.6 11.3 0.00 0.41 0.38 66 1016.8
20260831170503 21 206 1.6 11.3 0.00 0.41 0.38 64 1016.0
20260831163502 21 317 1.6 11.3 0.00 0.41 0.38 60 1015.6
20260831163003 21 312 0.0 29.0 0.00 0.41 0.38 60 1015.6
20260831160503 22 289 3.2 19.3 0.00 0.41 0.38 57 1015.3
20260831160003 22 294 3.2 24.1 0.00 0.41 0.38 56 1015.2
20260831153503 22 273 4.8 20.9 0.00 0.41 0.38 57 1014.8
20260831150503 22 266 0.0 11.3 0.00 0.41 0.38 58 1014.7
20260831150003 22 297 1.6 22.5 0.00 0.41 0.38 57 1014.7
20260831143002 22 304 4.8 20.9 0.00 0.41 0.38 58 1014.6
20260831140503 22 278 1.6 12.9 0.00 0.41 0.38 56 1014.3
20260831133002 22 326 4.8 19.3 0.00 0.41 0.38 63 1014.1